locationName,lineName,date,time,countIn,countOut
���X�X����,2_1_1,2022/8/1,0:00,2,0
���X�X����,2_1_1,2022/8/1,1:00,4,1
���X�X����,2_1_1,2022/8/1,2:00,3,3
���X�X����,2_1_1,2022/8/1,3:00,3,4
���X�X����,2_1_1,2022/8/1,4:00,2,1
���X�X����,2_1_1,2022/8/1,5:00,27,24
���X�X����,2_1_1,2022/8/1,6:00,55,45
���X�X����,2_1_1,2022/8/1,7:00,77,201
���X�X����,2_1_1,2022/8/1,8:00,89,205
���X�X����,2_1_1,2022/8/1,9:00,129,156
���X�X����,2_1_1,2022/8/1,10:00,158,217
���X�X����,2_1_1,2022/8/1,11:00,174,202
���X�X����,2_1_1,2022/8/1,12:00,270,198
���X�X����,2_1_1,2022/8/1,13:00,248,159
���X�X����,2_1_1,2022/8/1,14:00,207,121
���X�X����,2_1_1,2022/8/1,15:00,178,134
���X�X����,2_1_1,2022/8/1,16:00,129,73
���X�X����,2_1_1,2022/8/1,17:00,282,108
���X�X����,2_1_1,2022/8/1,18:00,197,102
���X�X����,2_1_1,2022/8/1,19:00,117,76
���X�X����,2_1_1,2022/8/1,20:00,75,45
���X�X����,2_1_1,2022/8/1,21:00,52,37
���X�X����,2_1_1,2022/8/1,22:00,15,8
���X�X����,2_1_1,2022/8/1,23:00,1,1
���X�X����,2_1_1,2022/8/2,0:00,0,0
���X�X����,2_1_1,2022/8/2,1:00,0,0
���X�X����,2_1_1,2022/8/2,2:00,2,0
���X�X����,2_1_1,2022/8/2,3:00,1,0
���X�X����,2_1_1,2022/8/2,4:00,2,1
���X�X����,2_1_1,2022/8/2,5:00,20,25
���X�X����,2_1_1,2022/8/2,6:00,64,42
���X�X����,2_1_1,2022/8/2,7:00,70,146
���X�X����,2_1_1,2022/8/2,8:00,101,211
���X�X����,2_1_1,2022/8/2,9:00,107,153
���X�X����,2_1_1,2022/8/2,10:00,156,161
���X�X����,2_1_1,2022/8/2,11:00,178,168
���X�X����,2_1_1,2022/8/2,12:00,202,170
���X�X����,2_1_1,2022/8/2,13:00,179,141
���X�X����,2_1_1,2022/8/2,14:00,200,145
���X�X����,2_1_1,2022/8/2,15:00,185,118
���X�X����,2_1_1,2022/8/2,16:00,188,81
���X�X����,2_1_1,2022/8/2,17:00,250,104
���X�X����,2_1_1,2022/8/2,18:00,167,91
���X�X����,2_1_1,2022/8/2,19:00,101,61
���X�X����,2_1_1,2022/8/2,20:00,76,32
���X�X����,2_1_1,2022/8/2,21:00,54,35
���X�X����,2_1_1,2022/8/2,22:00,12,7
���X�X����,2_1_1,2022/8/2,23:00,0,0
���X�X����,2_1_1,2022/8/3,0:00,0,0
���X�X����,2_1_1,2022/8/3,1:00,4,2
���X�X����,2_1_1,2022/8/3,2:00,2,0
���X�X����,2_1_1,2022/8/3,3:00,0,1
���X�X����,2_1_1,2022/8/3,4:00,0,1
���X�X����,2_1_1,2022/8/3,5:00,20,23
���X�X����,2_1_1,2022/8/3,6:00,30,34
���X�X����,2_1_1,2022/8/3,7:00,85,130
���X�X����,2_1_1,2022/8/3,8:00,100,198
���X�X����,2_1_1,2022/8/3,9:00,129,179
���X�X����,2_1_1,2022/8/3,10:00,148,164
���X�X����,2_1_1,2022/8/3,11:00,172,178
���X�X����,2_1_1,2022/8/3,12:00,197,224
���X�X����,2_1_1,2022/8/3,13:00,230,152
���X�X����,2_1_1,2022/8/3,14:00,213,152
���X�X����,2_1_1,2022/8/3,15:00,258,169
���X�X����,2_1_1,2022/8/3,16:00,217,106
���X�X����,2_1_1,2022/8/3,17:00,250,95
���X�X����,2_1_1,2022/8/3,18:00,152,111
���X�X����,2_1_1,2022/8/3,19:00,108,67
���X�X����,2_1_1,2022/8/3,20:00,77,45
���X�X����,2_1_1,2022/8/3,21:00,71,30
���X�X����,2_1_1,2022/8/3,22:00,12,3
���X�X����,2_1_1,2022/8/3,23:00,3,0
���X�X����,2_1_1,2022/8/4,0:00,4,0
���X�X����,2_1_1,2022/8/4,1:00,0,0
���X�X����,2_1_1,2022/8/4,2:00,1,0
���X�X����,2_1_1,2022/8/4,3:00,1,0
���X�X����,2_1_1,2022/8/4,4:00,1,0
���X�X����,2_1_1,2022/8/4,5:00,16,22
���X�X����,2_1_1,2022/8/4,6:00,57,37
���X�X����,2_1_1,2022/8/4,7:00,70,155
���X�X����,2_1_1,2022/8/4,8:00,104,231
���X�X����,2_1_1,2022/8/4,9:00,165,176
���X�X����,2_1_1,2022/8/4,10:00,178,247
���X�X����,2_1_1,2022/8/4,11:00,205,191
���X�X����,2_1_1,2022/8/4,12:00,267,207
���X�X����,2_1_1,2022/8/4,13:00,257,186
���X�X����,2_1_1,2022/8/4,14:00,234,166
���X�X����,2_1_1,2022/8/4,15:00,219,118
���X�X����,2_1_1,2022/8/4,16:00,219,107
���X�X����,2_1_1,2022/8/4,17:00,246,97
���X�X����,2_1_1,2022/8/4,18:00,139,98
���X�X����,2_1_1,2022/8/4,19:00,106,66
���X�X����,2_1_1,2022/8/4,20:00,70,45
���X�X����,2_1_1,2022/8/4,21:00,68,33
���X�X����,2_1_1,2022/8/4,22:00,11,7
���X�X����,2_1_1,2022/8/4,23:00,6,0
���X�X����,2_1_1,2022/8/5,0:00,0,0
���X�X����,2_1_1,2022/8/5,1:00,2,0
���X�X����,2_1_1,2022/8/5,2:00,1,0
���X�X����,2_1_1,2022/8/5,3:00,0,0
���X�X����,2_1_1,2022/8/5,4:00,2,0
���X�X����,2_1_1,2022/8/5,5:00,24,20
���X�X����,2_1_1,2022/8/5,6:00,33,34
���X�X����,2_1_1,2022/8/5,7:00,86,171
���X�X����,2_1_1,2022/8/5,8:00,100,220
���X�X����,2_1_1,2022/8/5,9:00,152,172
���X�X����,2_1_1,2022/8/5,10:00,163,199
���X�X����,2_1_1,2022/8/5,11:00,185,195
���X�X����,2_1_1,2022/8/5,12:00,259,252
���X�X����,2_1_1,2022/8/5,13:00,266,229
���X�X����,2_1_1,2022/8/5,14:00,202,157
���X�X����,2_1_1,2022/8/5,15:00,265,114
���X�X����,2_1_1,2022/8/5,16:00,185,147
���X�X����,2_1_1,2022/8/5,17:00,286,137
���X�X����,2_1_1,2022/8/5,18:00,177,149
���X�X����,2_1_1,2022/8/5,19:00,135,80
���X�X����,2_1_1,2022/8/5,20:00,87,56
���X�X����,2_1_1,2022/8/5,21:00,98,55
���X�X����,2_1_1,2022/8/5,22:00,22,7
���X�X����,2_1_1,2022/8/5,23:00,3,0
���X�X����,2_1_1,2022/8/6,0:00,2,0
���X�X����,2_1_1,2022/8/6,1:00,0,0
���X�X����,2_1_1,2022/8/6,2:00,1,0
���X�X����,2_1_1,2022/8/6,3:00,0,0
���X�X����,2_1_1,2022/8/6,4:00,1,0
���X�X����,2_1_1,2022/8/6,5:00,16,13
���X�X����,2_1_1,2022/8/6,6:00,35,14
���X�X����,2_1_1,2022/8/6,7:00,62,86
���X�X����,2_1_1,2022/8/6,8:00,92,113
���X�X����,2_1_1,2022/8/6,9:00,130,173
���X�X����,2_1_1,2022/8/6,10:00,146,211
���X�X����,2_1_1,2022/8/6,11:00,200,299
���X�X����,2_1_1,2022/8/6,12:00,350,284
���X�X����,2_1_1,2022/8/6,13:00,329,253
���X�X����,2_1_1,2022/8/6,14:00,345,255
���X�X����,2_1_1,2022/8/6,15:00,330,215
���X�X����,2_1_1,2022/8/6,16:00,266,140
���X�X����,2_1_1,2022/8/6,17:00,246,140
���X�X����,2_1_1,2022/8/6,18:00,148,124
���X�X����,2_1_1,2022/8/6,19:00,102,60
���X�X����,2_1_1,2022/8/6,20:00,77,60
���X�X����,2_1_1,2022/8/6,21:00,76,27
���X�X����,2_1_1,2022/8/6,22:00,16,10
���X�X����,2_1_1,2022/8/6,23:00,3,0
���X�X����,2_1_1,2022/8/7,0:00,1,0
���X�X����,2_1_1,2022/8/7,1:00,0,0
���X�X����,2_1_1,2022/8/7,2:00,3,0
���X�X����,2_1_1,2022/8/7,3:00,0,1
���X�X����,2_1_1,2022/8/7,4:00,0,0
���X�X����,2_1_1,2022/8/7,5:00,20,17
���X�X����,2_1_1,2022/8/7,6:00,52,23
���X�X����,2_1_1,2022/8/7,7:00,66,49
���X�X����,2_1_1,2022/8/7,8:00,80,70
���X�X����,2_1_1,2022/8/7,9:00,113,130
���X�X����,2_1_1,2022/8/7,10:00,146,270
���X�X����,2_1_1,2022/8/7,11:00,216,317
���X�X����,2_1_1,2022/8/7,12:00,312,271
���X�X����,2_1_1,2022/8/7,13:00,425,364
���X�X����,2_1_1,2022/8/7,14:00,424,321
���X�X����,2_1_1,2022/8/7,15:00,385,202
���X�X����,2_1_1,2022/8/7,16:00,270,166
���X�X����,2_1_1,2022/8/7,17:00,259,139
���X�X����,2_1_1,2022/8/7,18:00,132,79
���X�X����,2_1_1,2022/8/7,19:00,73,63
���X�X����,2_1_1,2022/8/7,20:00,89,74
���X�X����,2_1_1,2022/8/7,21:00,53,29
���X�X����,2_1_1,2022/8/7,22:00,9,8
���X�X����,2_1_1,2022/8/7,23:00,3,0
���X�X����,2_1_1,2022/8/8,0:00,0,0
���X�X����,2_1_1,2022/8/8,1:00,0,0
���X�X����,2_1_1,2022/8/8,2:00,0,0
���X�X����,2_1_1,2022/8/8,3:00,0,0
���X�X����,2_1_1,2022/8/8,4:00,0,0
���X�X����,2_1_1,2022/8/8,5:00,15,15
���X�X����,2_1_1,2022/8/8,6:00,29,28
���X�X����,2_1_1,2022/8/8,7:00,65,146
���X�X����,2_1_1,2022/8/8,8:00,127,287
���X�X����,2_1_1,2022/8/8,9:00,139,195
���X�X����,2_1_1,2022/8/8,10:00,154,261
���X�X����,2_1_1,2022/8/8,11:00,193,286
���X�X����,2_1_1,2022/8/8,12:00,274,317
���X�X����,2_1_1,2022/8/8,13:00,236,268
���X�X����,2_1_1,2022/8/8,14:00,311,236
���X�X����,2_1_1,2022/8/8,15:00,301,216
���X�X����,2_1_1,2022/8/8,16:00,234,169
���X�X����,2_1_1,2022/8/8,17:00,312,189
���X�X����,2_1_1,2022/8/8,18:00,233,159
���X�X����,2_1_1,2022/8/8,19:00,124,109
���X�X����,2_1_1,2022/8/8,20:00,55,56
���X�X����,2_1_1,2022/8/8,21:00,72,44
���X�X����,2_1_1,2022/8/8,22:00,22,16
���X�X����,2_1_1,2022/8/8,23:00,3,2
���X�X����,2_1_1,2022/8/9,0:00,2,2
���X�X����,2_1_1,2022/8/9,1:00,2,1
���X�X����,2_1_1,2022/8/9,2:00,1,1
���X�X����,2_1_1,2022/8/9,3:00,3,0
���X�X����,2_1_1,2022/8/9,4:00,2,0
���X�X����,2_1_1,2022/8/9,5:00,17,25
���X�X����,2_1_1,2022/8/9,6:00,46,39
���X�X����,2_1_1,2022/8/9,7:00,78,204
���X�X����,2_1_1,2022/8/9,8:00,111,302
���X�X����,2_1_1,2022/8/9,9:00,146,234
���X�X����,2_1_1,2022/8/9,10:00,175,289
���X�X����,2_1_1,2022/8/9,11:00,220,306
���X�X����,2_1_1,2022/8/9,12:00,326,314
���X�X����,2_1_1,2022/8/9,13:00,256,304
���X�X����,2_1_1,2022/8/9,14:00,287,282
���X�X����,2_1_1,2022/8/9,15:00,238,185
���X�X����,2_1_1,2022/8/9,16:00,261,134
���X�X����,2_1_1,2022/8/9,17:00,307,141
���X�X����,2_1_1,2022/8/9,18:00,187,112
���X�X����,2_1_1,2022/8/9,19:00,93,106
���X�X����,2_1_1,2022/8/9,20:00,102,63
���X�X����,2_1_1,2022/8/9,21:00,63,51
���X�X����,2_1_1,2022/8/9,22:00,24,8
���X�X����,2_1_1,2022/8/9,23:00,5,1
���X�X����,2_1_1,2022/8/10,0:00,2,1
���X�X����,2_1_1,2022/8/10,1:00,3,1
���X�X����,2_1_1,2022/8/10,2:00,2,1
���X�X����,2_1_1,2022/8/10,3:00,0,0
���X�X����,2_1_1,2022/8/10,4:00,3,0
���X�X����,2_1_1,2022/8/10,5:00,19,21
���X�X����,2_1_1,2022/8/10,6:00,57,43
���X�X����,2_1_1,2022/8/10,7:00,74,183
���X�X����,2_1_1,2022/8/10,8:00,94,225
���X�X����,2_1_1,2022/8/10,9:00,144,207
���X�X����,2_1_1,2022/8/10,10:00,180,312
���X�X����,2_1_1,2022/8/10,11:00,195,319
���X�X����,2_1_1,2022/8/10,12:00,314,365
���X�X����,2_1_1,2022/8/10,13:00,320,346
���X�X����,2_1_1,2022/8/10,14:00,291,308
���X�X����,2_1_1,2022/8/10,15:00,311,189
���X�X����,2_1_1,2022/8/10,16:00,210,176
���X�X����,2_1_1,2022/8/10,17:00,342,186
���X�X����,2_1_1,2022/8/10,18:00,212,222
���X�X����,2_1_1,2022/8/10,19:00,156,111
���X�X����,2_1_1,2022/8/10,20:00,116,76
���X�X����,2_1_1,2022/8/10,21:00,84,54
���X�X����,2_1_1,2022/8/10,22:00,29,14
���X�X����,2_1_1,2022/8/10,23:00,7,3
���X�X����,2_1_1,2022/8/11,0:00,1,1
���X�X����,2_1_1,2022/8/11,1:00,1,1
���X�X����,2_1_1,2022/8/11,2:00,1,0
���X�X����,2_1_1,2022/8/11,3:00,3,0
���X�X����,2_1_1,2022/8/11,4:00,2,0
���X�X����,2_1_1,2022/8/11,5:00,28,29
���X�X����,2_1_1,2022/8/11,6:00,47,52
���X�X����,2_1_1,2022/8/11,7:00,55,64
���X�X����,2_1_1,2022/8/11,8:00,111,113
���X�X����,2_1_1,2022/8/11,9:00,160,238
���X�X����,2_1_1,2022/8/11,10:00,195,379
���X�X����,2_1_1,2022/8/11,11:00,246,485
���X�X����,2_1_1,2022/8/11,12:00,387,503
���X�X����,2_1_1,2022/8/11,13:00,446,472
���X�X����,2_1_1,2022/8/11,14:00,509,493
���X�X����,2_1_1,2022/8/11,15:00,461,318
���X�X����,2_1_1,2022/8/11,16:00,447,283
���X�X����,2_1_1,2022/8/11,17:00,367,283
���X�X����,2_1_1,2022/8/11,18:00,230,235
���X�X����,2_1_1,2022/8/11,19:00,163,126
���X�X����,2_1_1,2022/8/11,20:00,113,68
���X�X����,2_1_1,2022/8/11,21:00,85,30
���X�X����,2_1_1,2022/8/11,22:00,27,20
���X�X����,2_1_1,2022/8/11,23:00,5,2
���X�X����,2_1_1,2022/8/12,0:00,2,2
���X�X����,2_1_1,2022/8/12,1:00,5,1
���X�X����,2_1_1,2022/8/12,2:00,2,1
���X�X����,2_1_1,2022/8/12,3:00,0,2
���X�X����,2_1_1,2022/8/12,4:00,0,2
���X�X����,2_1_1,2022/8/12,5:00,19,20
���X�X����,2_1_1,2022/8/12,6:00,53,42
���X�X����,2_1_1,2022/8/12,7:00,68,149
���X�X����,2_1_1,2022/8/12,8:00,102,219
���X�X����,2_1_1,2022/8/12,9:00,175,315
���X�X����,2_1_1,2022/8/12,10:00,276,453
���X�X����,2_1_1,2022/8/12,11:00,317,523
���X�X����,2_1_1,2022/8/12,12:00,474,566
���X�X����,2_1_1,2022/8/12,13:00,514,526
���X�X����,2_1_1,2022/8/12,14:00,517,493
���X�X����,2_1_1,2022/8/12,15:00,551,357
���X�X����,2_1_1,2022/8/12,16:00,354,311
���X�X����,2_1_1,2022/8/12,17:00,389,226
���X�X����,2_1_1,2022/8/12,18:00,216,212
���X�X����,2_1_1,2022/8/12,19:00,160,140
���X�X����,2_1_1,2022/8/12,20:00,116,87
���X�X����,2_1_1,2022/8/12,21:00,88,61
���X�X����,2_1_1,2022/8/12,22:00,23,11
���X�X����,2_1_1,2022/8/12,23:00,11,1
���X�X����,2_1_1,2022/8/13,0:00,6,3
���X�X����,2_1_1,2022/8/13,1:00,4,1
���X�X����,2_1_1,2022/8/13,2:00,3,0
���X�X����,2_1_1,2022/8/13,3:00,2,3
���X�X����,2_1_1,2022/8/13,4:00,3,4
���X�X����,2_1_1,2022/8/13,5:00,30,22
���X�X����,2_1_1,2022/8/13,6:00,46,53
���X�X����,2_1_1,2022/8/13,7:00,81,77
���X�X����,2_1_1,2022/8/13,8:00,112,142
���X�X����,2_1_1,2022/8/13,9:00,200,289
���X�X����,2_1_1,2022/8/13,10:00,267,456
���X�X����,2_1_1,2022/8/13,11:00,325,539
���X�X����,2_1_1,2022/8/13,12:00,445,593
���X�X����,2_1_1,2022/8/13,13:00,538,588
���X�X����,2_1_1,2022/8/13,14:00,628,455
���X�X����,2_1_1,2022/8/13,15:00,463,356
���X�X����,2_1_1,2022/8/13,16:00,388,335
���X�X����,2_1_1,2022/8/13,17:00,341,291
���X�X����,2_1_1,2022/8/13,18:00,241,244
���X�X����,2_1_1,2022/8/13,19:00,126,164
���X�X����,2_1_1,2022/8/13,20:00,92,83
���X�X����,2_1_1,2022/8/13,21:00,86,43
���X�X����,2_1_1,2022/8/13,22:00,34,14
���X�X����,2_1_1,2022/8/13,23:00,12,2
���X�X����,2_1_1,2022/8/14,0:00,9,2
���X�X����,2_1_1,2022/8/14,1:00,0,0
���X�X����,2_1_1,2022/8/14,2:00,4,1
���X�X����,2_1_1,2022/8/14,3:00,3,1
���X�X����,2_1_1,2022/8/14,4:00,2,1
���X�X����,2_1_1,2022/8/14,5:00,15,14
���X�X����,2_1_1,2022/8/14,6:00,41,42
���X�X����,2_1_1,2022/8/14,7:00,62,72
���X�X����,2_1_1,2022/8/14,8:00,85,114
���X�X����,2_1_1,2022/8/14,9:00,157,201
���X�X����,2_1_1,2022/8/14,10:00,183,452
���X�X����,2_1_1,2022/8/14,11:00,253,475
���X�X����,2_1_1,2022/8/14,12:00,481,583
���X�X����,2_1_1,2022/8/14,13:00,511,507
���X�X����,2_1_1,2022/8/14,14:00,531,482
���X�X����,2_1_1,2022/8/14,15:00,559,373
���X�X����,2_1_1,2022/8/14,16:00,472,355
���X�X����,2_1_1,2022/8/14,17:00,318,269
���X�X����,2_1_1,2022/8/14,18:00,229,162
���X�X����,2_1_1,2022/8/14,19:00,142,125
���X�X����,2_1_1,2022/8/14,20:00,89,68
���X�X����,2_1_1,2022/8/14,21:00,53,46
���X�X����,2_1_1,2022/8/14,22:00,28,26
���X�X����,2_1_1,2022/8/14,23:00,0,1
���X�X����,2_1_1,2022/8/15,0:00,2,1
���X�X����,2_1_1,2022/8/15,1:00,3,1
���X�X����,2_1_1,2022/8/15,2:00,6,1
���X�X����,2_1_1,2022/8/15,3:00,2,1
���X�X����,2_1_1,2022/8/15,4:00,3,1
���X�X����,2_1_1,2022/8/15,5:00,17,16
���X�X����,2_1_1,2022/8/15,6:00,36,30
���X�X����,2_1_1,2022/8/15,7:00,47,110
���X�X����,2_1_1,2022/8/15,8:00,87,195
���X�X����,2_1_1,2022/8/15,9:00,193,233
���X�X����,2_1_1,2022/8/15,10:00,277,465
���X�X����,2_1_1,2022/8/15,11:00,351,546
���X�X����,2_1_1,2022/8/15,12:00,434,597
���X�X����,2_1_1,2022/8/15,13:00,480,487
���X�X����,2_1_1,2022/8/15,14:00,562,468
���X�X����,2_1_1,2022/8/15,15:00,511,350
���X�X����,2_1_1,2022/8/15,16:00,435,294
���X�X����,2_1_1,2022/8/15,17:00,411,221
���X�X����,2_1_1,2022/8/15,18:00,207,224
���X�X����,2_1_1,2022/8/15,19:00,160,112
���X�X����,2_1_1,2022/8/15,20:00,97,64
���X�X����,2_1_1,2022/8/15,21:00,51,32
���X�X����,2_1_1,2022/8/15,22:00,13,8
���X�X����,2_1_1,2022/8/15,23:00,11,1
���X�X����,2_1_1,2022/8/16,0:00,4,2
���X�X����,2_1_1,2022/8/16,1:00,0,0
���X�X����,2_1_1,2022/8/16,2:00,2,3
���X�X����,2_1_1,2022/8/16,3:00,2,1
���X�X����,2_1_1,2022/8/16,4:00,2,5
���X�X����,2_1_1,2022/8/16,5:00,20,19
���X�X����,2_1_1,2022/8/16,6:00,38,30
���X�X����,2_1_1,2022/8/16,7:00,68,140
���X�X����,2_1_1,2022/8/16,8:00,100,206
���X�X����,2_1_1,2022/8/16,9:00,150,229
���X�X����,2_1_1,2022/8/16,10:00,237,393
���X�X����,2_1_1,2022/8/16,11:00,281,441
���X�X����,2_1_1,2022/8/16,12:00,345,427
���X�X����,2_1_1,2022/8/16,13:00,397,398
���X�X����,2_1_1,2022/8/16,14:00,372,333
���X�X����,2_1_1,2022/8/16,15:00,369,225
���X�X����,2_1_1,2022/8/16,16:00,259,199
���X�X����,2_1_1,2022/8/16,17:00,339,159
���X�X����,2_1_1,2022/8/16,18:00,197,143
���X�X����,2_1_1,2022/8/16,19:00,99,118
���X�X����,2_1_1,2022/8/16,20:00,52,54
���X�X����,2_1_1,2022/8/16,21:00,62,34
���X�X����,2_1_1,2022/8/16,22:00,11,13
���X�X����,2_1_1,2022/8/16,23:00,4,1
���X�X����,2_1_1,2022/8/17,0:00,4,4
���X�X����,2_1_1,2022/8/17,1:00,0,1
���X�X����,2_1_1,2022/8/17,2:00,1,1
���X�X����,2_1_1,2022/8/17,3:00,3,2
���X�X����,2_1_1,2022/8/17,4:00,1,3
���X�X����,2_1_1,2022/8/17,5:00,10,9
���X�X����,2_1_1,2022/8/17,6:00,46,41
���X�X����,2_1_1,2022/8/17,7:00,63,129
���X�X����,2_1_1,2022/8/17,8:00,71,158
���X�X����,2_1_1,2022/8/17,9:00,92,121
���X�X����,2_1_1,2022/8/17,10:00,128,197
���X�X����,2_1_1,2022/8/17,11:00,222,337
���X�X����,2_1_1,2022/8/17,12:00,299,349
���X�X����,2_1_1,2022/8/17,13:00,217,251
���X�X����,2_1_1,2022/8/17,14:00,252,213
���X�X����,2_1_1,2022/8/17,15:00,263,197
���X�X����,2_1_1,2022/8/17,16:00,221,179
���X�X����,2_1_1,2022/8/17,17:00,277,155
���X�X����,2_1_1,2022/8/17,18:00,201,168
���X�X����,2_1_1,2022/8/17,19:00,102,87
���X�X����,2_1_1,2022/8/17,20:00,39,46
���X�X����,2_1_1,2022/8/17,21:00,73,28
���X�X����,2_1_1,2022/8/17,22:00,21,12
���X�X����,2_1_1,2022/8/17,23:00,5,1
���X�X����,2_1_1,2022/8/18,0:00,3,1
���X�X����,2_1_1,2022/8/18,1:00,0,0
���X�X����,2_1_1,2022/8/18,2:00,3,0
���X�X����,2_1_1,2022/8/18,3:00,3,2
���X�X����,2_1_1,2022/8/18,4:00,1,1
���X�X����,2_1_1,2022/8/18,5:00,6,5
���X�X����,2_1_1,2022/8/18,6:00,28,26
���X�X����,2_1_1,2022/8/18,7:00,70,196
���X�X����,2_1_1,2022/8/18,8:00,91,248
���X�X����,2_1_1,2022/8/18,9:00,133,210
���X�X����,2_1_1,2022/8/18,10:00,184,251
���X�X����,2_1_1,2022/8/18,11:00,218,357
���X�X����,2_1_1,2022/8/18,12:00,323,436
���X�X����,2_1_1,2022/8/18,13:00,347,374
���X�X����,2_1_1,2022/8/18,14:00,369,291
���X�X����,2_1_1,2022/8/18,15:00,294,235
���X�X����,2_1_1,2022/8/18,16:00,260,214
���X�X����,2_1_1,2022/8/18,17:00,325,180
���X�X����,2_1_1,2022/8/18,18:00,185,139
���X�X����,2_1_1,2022/8/18,19:00,131,116
���X�X����,2_1_1,2022/8/18,20:00,94,61
���X�X����,2_1_1,2022/8/18,21:00,87,48
���X�X����,2_1_1,2022/8/18,22:00,18,8
���X�X����,2_1_1,2022/8/18,23:00,4,6
���X�X����,2_1_1,2022/8/19,0:00,1,0
���X�X����,2_1_1,2022/8/19,1:00,5,0
���X�X����,2_1_1,2022/8/19,2:00,0,2
���X�X����,2_1_1,2022/8/19,3:00,0,0
���X�X����,2_1_1,2022/8/19,4:00,2,3
���X�X����,2_1_1,2022/8/19,5:00,22,22
���X�X����,2_1_1,2022/8/19,6:00,40,44
���X�X����,2_1_1,2022/8/19,7:00,85,239
���X�X����,2_1_1,2022/8/19,8:00,125,320
���X�X����,2_1_1,2022/8/19,9:00,153,275
���X�X����,2_1_1,2022/8/19,10:00,201,321
���X�X����,2_1_1,2022/8/19,11:00,295,348
���X�X����,2_1_1,2022/8/19,12:00,336,436
���X�X����,2_1_1,2022/8/19,13:00,392,383
���X�X����,2_1_1,2022/8/19,14:00,386,281
���X�X����,2_1_1,2022/8/19,15:00,358,261
���X�X����,2_1_1,2022/8/19,16:00,268,200
���X�X����,2_1_1,2022/8/19,17:00,332,183
���X�X����,2_1_1,2022/8/19,18:00,194,172
���X�X����,2_1_1,2022/8/19,19:00,120,90
���X�X����,2_1_1,2022/8/19,20:00,95,59
���X�X����,2_1_1,2022/8/19,21:00,76,60
���X�X����,2_1_1,2022/8/19,22:00,21,7
���X�X����,2_1_1,2022/8/19,23:00,9,3
���X�X����,2_1_1,2022/8/20,0:00,8,1
���X�X����,2_1_1,2022/8/20,1:00,7,1
���X�X����,2_1_1,2022/8/20,2:00,2,0
���X�X����,2_1_1,2022/8/20,3:00,1,1
���X�X����,2_1_1,2022/8/20,4:00,1,1
���X�X����,2_1_1,2022/8/20,5:00,11,13
���X�X����,2_1_1,2022/8/20,6:00,40,60
���X�X����,2_1_1,2022/8/20,7:00,51,265
���X�X����,2_1_1,2022/8/20,8:00,80,232
���X�X����,2_1_1,2022/8/20,9:00,107,197
���X�X����,2_1_1,2022/8/20,10:00,178,347
���X�X����,2_1_1,2022/8/20,11:00,229,347
���X�X����,2_1_1,2022/8/20,12:00,329,368
���X�X����,2_1_1,2022/8/20,13:00,365,339
���X�X����,2_1_1,2022/8/20,14:00,477,331
���X�X����,2_1_1,2022/8/20,15:00,471,280
���X�X����,2_1_1,2022/8/20,16:00,307,180
���X�X����,2_1_1,2022/8/20,17:00,359,206
���X�X����,2_1_1,2022/8/20,18:00,186,138
���X�X����,2_1_1,2022/8/20,19:00,98,81
���X�X����,2_1_1,2022/8/20,20:00,128,79
���X�X����,2_1_1,2022/8/20,21:00,70,34
���X�X����,2_1_1,2022/8/20,22:00,13,11
���X�X����,2_1_1,2022/8/20,23:00,7,0
���X�X����,2_1_1,2022/8/21,0:00,9,2
���X�X����,2_1_1,2022/8/21,1:00,3,0
���X�X����,2_1_1,2022/8/21,2:00,2,0
���X�X����,2_1_1,2022/8/21,3:00,4,1
���X�X����,2_1_1,2022/8/21,4:00,2,6
���X�X����,2_1_1,2022/8/21,5:00,11,4
���X�X����,2_1_1,2022/8/21,6:00,37,23
���X�X����,2_1_1,2022/8/21,7:00,64,71
���X�X����,2_1_1,2022/8/21,8:00,74,87
���X�X����,2_1_1,2022/8/21,9:00,110,200
���X�X����,2_1_1,2022/8/21,10:00,186,305
���X�X����,2_1_1,2022/8/21,11:00,270,399
���X�X����,2_1_1,2022/8/21,12:00,375,444
���X�X����,2_1_1,2022/8/21,13:00,421,404
���X�X����,2_1_1,2022/8/21,14:00,402,327
���X�X����,2_1_1,2022/8/21,15:00,436,298
���X�X����,2_1_1,2022/8/21,16:00,370,223
���X�X����,2_1_1,2022/8/21,17:00,266,157
���X�X����,2_1_1,2022/8/21,18:00,142,136
���X�X����,2_1_1,2022/8/21,19:00,115,102
���X�X����,2_1_1,2022/8/21,20:00,65,56
���X�X����,2_1_1,2022/8/21,21:00,57,44
���X�X����,2_1_1,2022/8/21,22:00,16,9
���X�X����,2_1_1,2022/8/21,23:00,5,3
���X�X����,2_1_1,2022/8/22,0:00,2,3
���X�X����,2_1_1,2022/8/22,1:00,0,2
���X�X����,2_1_1,2022/8/22,2:00,2,1
���X�X����,2_1_1,2022/8/22,3:00,1,4
���X�X����,2_1_1,2022/8/22,4:00,4,3
���X�X����,2_1_1,2022/8/22,5:00,14,12
���X�X����,2_1_1,2022/8/22,6:00,35,22
���X�X����,2_1_1,2022/8/22,7:00,57,238
���X�X����,2_1_1,2022/8/22,8:00,99,333
���X�X����,2_1_1,2022/8/22,9:00,150,193
���X�X����,2_1_1,2022/8/22,10:00,192,299
���X�X����,2_1_1,2022/8/22,11:00,255,288
���X�X����,2_1_1,2022/8/22,12:00,272,307
���X�X����,2_1_1,2022/8/22,13:00,301,329
���X�X����,2_1_1,2022/8/22,14:00,345,220
���X�X����,2_1_1,2022/8/22,15:00,251,162
���X�X����,2_1_1,2022/8/22,16:00,229,124
���X�X����,2_1_1,2022/8/22,17:00,301,134
���X�X����,2_1_1,2022/8/22,18:00,199,136
���X�X����,2_1_1,2022/8/22,19:00,96,80
���X�X����,2_1_1,2022/8/22,20:00,71,53
���X�X����,2_1_1,2022/8/22,21:00,47,39
���X�X����,2_1_1,2022/8/22,22:00,13,6
���X�X����,2_1_1,2022/8/22,23:00,6,2
���X�X����,2_1_1,2022/8/23,0:00,3,1
���X�X����,2_1_1,2022/8/23,1:00,3,1
���X�X����,2_1_1,2022/8/23,2:00,0,0
���X�X����,2_1_1,2022/8/23,3:00,0,0
���X�X����,2_1_1,2022/8/23,4:00,3,4
���X�X����,2_1_1,2022/8/23,5:00,16,14
���X�X����,2_1_1,2022/8/23,6:00,46,52
���X�X����,2_1_1,2022/8/23,7:00,81,364
���X�X����,2_1_1,2022/8/23,8:00,78,276
���X�X����,2_1_1,2022/8/23,9:00,135,221
���X�X����,2_1_1,2022/8/23,10:00,190,284
���X�X����,2_1_1,2022/8/23,11:00,223,311
���X�X����,2_1_1,2022/8/23,12:00,262,341
���X�X����,2_1_1,2022/8/23,13:00,268,207
���X�X����,2_1_1,2022/8/23,14:00,298,199
���X�X����,2_1_1,2022/8/23,15:00,272,155
���X�X����,2_1_1,2022/8/23,16:00,344,145
���X�X����,2_1_1,2022/8/23,17:00,306,143
���X�X����,2_1_1,2022/8/23,18:00,228,142
���X�X����,2_1_1,2022/8/23,19:00,112,112
���X�X����,2_1_1,2022/8/23,20:00,75,59
���X�X����,2_1_1,2022/8/23,21:00,61,61
���X�X����,2_1_1,2022/8/23,22:00,19,12
���X�X����,2_1_1,2022/8/23,23:00,2,5
���X�X����,2_1_1,2022/8/24,0:00,2,2
���X�X����,2_1_1,2022/8/24,1:00,6,1
���X�X����,2_1_1,2022/8/24,2:00,2,1
���X�X����,2_1_1,2022/8/24,3:00,1,2
���X�X����,2_1_1,2022/8/24,4:00,2,1
���X�X����,2_1_1,2022/8/24,5:00,7,9
���X�X����,2_1_1,2022/8/24,6:00,39,49
���X�X����,2_1_1,2022/8/24,7:00,57,291
���X�X����,2_1_1,2022/8/24,8:00,87,215
���X�X����,2_1_1,2022/8/24,9:00,144,168
���X�X����,2_1_1,2022/8/24,10:00,124,210
���X�X����,2_1_1,2022/8/24,11:00,148,253
���X�X����,2_1_1,2022/8/24,12:00,237,283
���X�X����,2_1_1,2022/8/24,13:00,208,211
���X�X����,2_1_1,2022/8/24,14:00,255,228
���X�X����,2_1_1,2022/8/24,15:00,231,168
���X�X����,2_1_1,2022/8/24,16:00,283,179
���X�X����,2_1_1,2022/8/24,17:00,275,157
���X�X����,2_1_1,2022/8/24,18:00,168,110
���X�X����,2_1_1,2022/8/24,19:00,107,85
���X�X����,2_1_1,2022/8/24,20:00,92,55
���X�X����,2_1_1,2022/8/24,21:00,73,34
���X�X����,2_1_1,2022/8/24,22:00,9,16
���X�X����,2_1_1,2022/8/24,23:00,4,3
���X�X����,2_1_1,2022/8/25,0:00,0,0
���X�X����,2_1_1,2022/8/25,1:00,0,2
���X�X����,2_1_1,2022/8/25,2:00,2,0
���X�X����,2_1_1,2022/8/25,3:00,1,1
���X�X����,2_1_1,2022/8/25,4:00,3,1
���X�X����,2_1_1,2022/8/25,5:00,14,12
���X�X����,2_1_1,2022/8/25,6:00,42,39
���X�X����,2_1_1,2022/8/25,7:00,74,382
���X�X����,2_1_1,2022/8/25,8:00,85,349
���X�X����,2_1_1,2022/8/25,9:00,170,195
���X�X����,2_1_1,2022/8/25,10:00,171,279
���X�X����,2_1_1,2022/8/25,11:00,180,280
���X�X����,2_1_1,2022/8/25,12:00,255,250
���X�X����,2_1_1,2022/8/25,13:00,326,180
���X�X����,2_1_1,2022/8/25,14:00,246,177
���X�X����,2_1_1,2022/8/25,15:00,248,176
���X�X����,2_1_1,2022/8/25,16:00,240,156
���X�X����,2_1_1,2022/8/25,17:00,274,147
���X�X����,2_1_1,2022/8/25,18:00,224,170
���X�X����,2_1_1,2022/8/25,19:00,109,143
���X�X����,2_1_1,2022/8/25,20:00,111,71
���X�X����,2_1_1,2022/8/25,21:00,90,48
���X�X����,2_1_1,2022/8/25,22:00,20,14
���X�X����,2_1_1,2022/8/25,23:00,4,2
���X�X����,2_1_1,2022/8/26,0:00,1,1
���X�X����,2_1_1,2022/8/26,1:00,3,1
���X�X����,2_1_1,2022/8/26,2:00,0,0
���X�X����,2_1_1,2022/8/26,3:00,1,1